Temperature
19 19 19 19 16 14 17 18 20 21 23 24 24 23 21 21 21 21 22 22 22 22 22 22 22 22 22 21 21 20 19 19 18 18 17 17 17 17 17 16 17 17 17 17 17 17 17 17 17
19 19 19 18 15 16 18 19 20 22 24 25 25 24 22 22 22 22 22 22 22 22 22 22 22 22 22 21 21 21 20 19 18 18 18 17 17 17 17 16 16 17 17 17 17 17 17 17 17
19 19 19 15 16 17 20 21 21 23 24 25 24 24 22 22 22 22 22 22 22 22 22 22 22 21 21 21 21 21 20 19 18 18 17 17 17 17 17 16 16 16 16 16 16 16 16 16 17
19 19 18 15 19 19 21 21 22 21 24 24 24 22 22 21 22 21 21 21 22 22 21 21 21 21 21 20 20 20 20 19 19 18 18 17 17 17 16 16 16 16 16 16 16 16 16 16 16
19 19 15 15 18 19 19 21 21 19 20 22 23 21 21 21 21 21 20 21 21 21 20 19 20 20 20 20 19 19 19 19 18 18 18 17 16 16 16 16 16 16 16 16 16 16 16 16 16
19 16 15 16 18 19 19 21 22 20 21 22 22 21 21 20 21 20 20 20 20 20 19 18 19 19 19 18 18 18 18 18 18 18 17 17 16 16 16 15 15 15 15 15 16 16 16 16 16
18 14 16 17 18 19 19 21 21 20 20 21 22 20 20 20 20 20 20 20 19 19 19 18 18 18 17 17 17 17 17 17 17 17 16 16 15 15 15 15 15 15 15 15 15 15 16 16 16
19 14 17 16 18 19 19 21 21 21 21 21 20 19 19 19 20 20 20 19 18 18 18 18 17 17 17 17 16 16 16 16 16 16 15 15 15 15 15 15 15 15 15 15 14 15 15 15 15
19 14 16 18 19 19 19 20 21 21 20 18 16 16 16 18 19 19 19 18 18 17 17 16 16 16 17 17 16 15 15 14 14 14 15 15 15 14 14 14 14 14 14 14 14 14 14 14 15
18 15 18 19 20 19 20 19 20 19 17 15 15 15 17 19 18 18 17 16 16 16 16 16 16 16 16 16 15 15 14 14 14 14 14 14 14 14 14 14 14 14 14 14 13 13 13 14 14
18 17 18 20 20 21 20 18 18 17 12 12 11 12 15 16 16 15 15 14 14 14 14 14 15 15 15 15 14 14 14 14 14 14 14 14 14 14 14 14 14 14 14 14 13 13 13 13 14
18 19 19 20 20 20 19 17 14 13 11 11 11 13 14 13 13 13 13 13 13 14 14 14 14 14 14 14 14 14 14 14 14 14 14 14 14 14 14 13 13 13 13 13 13 13 13 13 13
18 19 20 20 20 19 18 15 13 12 11 11 12 13 12 11 11 11 12 12 13 13 13 13 13 13 13 13 13 13 13 13 14 14 14 13 13 14 14 14 13 13 13 13 13 13 13 13 13
19 19 19 20 20 18 16 15 14 11 10 11 11 10 10 10 10 10 11 11 11 12 12 13 13 13 13 13 13 13 13 13 13 13 13 13 13 13 14 14 13 13 13 13 13 13 13 13 13
19 18 17 19 19 18 16 12 11 10 11 10 10 9 9 9 9 9 9 9 10 10 11 12 12 12 13 13 13 13 13 13 13 12 13 13 13 13 13 13 13 13 12 12 12 12 12 12 12
17 16 16 18 19 17 15 11 11 10 10 9 9 9 9 9 8 8 8 8 8 9 10 10 11 11 12 12 12 12 12 12 12 12 12 12 12 13 13 13 13 12 12 12 12 12 12 12 12
14 15 16 17 17 17 13 11 10 9 9 9 9 9 9 8 8 8 8 8 8 8 8 8 8 9 9 10 11 12 12 12 12 12 12 12 12 12 12 12 12 12 12 11 12 12 12 12 12
15 15 15 15 16 15 11 9 9 8 9 9 9 8 8 7 7 7 7 7 7 7 7 7 7 7 7 8 9 10 11 11 11 11 11 11 11 11 11 11 12 12 11 11 11 11 11 11 12
15 15 14 15 15 15 11 9 8 8 8 8 8 7 7 6 7 7 7 6 6 6 6 6 6 5 5 5 6 6 7 8 8 9 9 9 10 10 10 10 11 11 11 10 11 11 11 11 11
14 14 13 13 14 13 9 8 8 8 7 7 6 6 6 6 6 6 6 6 6 6 5 5 5 5 5 5 4 4 5 5 5 6 7 8 8 8 9 9 10 10 10 10 10 10 11 11 11
13 14 13 13 12 12 8 8 7 7 6 6 6 5 5 5 5 5 5 4 4 4 4 4 4 4 4 4 4 4 4 4 5 5 6 6 7 7 8 9 9 10 10 10 10 10 10 10 10
12 13 13 12 11 10 11 7 7 6 5 5 5 4 4 4 4 4 4 3 3 3 3 3 3 3 3 3 3 3 3 3 3 3 4 4 5 6 7 8 8 9 9 9 9 9 10 10 10
12 12 11 11 10 10 10 7 6 6 4 3 4 3 3 3 3 3 3 3 3 2 2 1 1 1 1 2 2 1 1 2 2 2 3 3 4 5 6 6 7 8 8 9 9 9 9 9 9
11 10 11 9 9 10 11 7 4 4 3 3 3 3 3 3 2 2 2 2 2 1 1 0 0 -0 -0 0 0 0 0 1 1 1 1 2 3 4 4 5 6 6 7 8 9 9 9 9 9
9 8 9 9 9 10 8 5 4 4 4 4 3 2 2 2 1 1 0 1 0 -1 -1 -1 -1 -1 -1 -1 -0 -1 -1 -0 -0 0 0 1 1 3 4 4 5 5 6 6 7 8 8 8 8
9 9 8 9 8 7 7 4 4 4 4 3 2 2 1 1 0 -0 -1 -0 -1 -2 -2 -2 -2 -2 -2 -1 -1 -1 -1 -1 -1 -1 -1 -1 -0 1 2 3 4 5 5 5 6 7 7 7 7
11 9 9 7 7 6 6 4 3 4 3 3 2 1 1 0 -1 -2 -2 -2 -2 -3 -3 -3 -4 -3 -3 -3 -2 -2 -2 -2 -2 -2 -2 -3 -3 -2 -0 2 3 4 4 5 6 7 7 7 7
10 8 6 7 7 7 6 4 3 2 1 1 1 1 -0 -1 -2 -3 -3 -3 -3 -4 -4 -4 -5 -5 -5 -5 -4 -4 -4 -4 -4 -5 -5 -5 -4 -4 -3 -1 1 2 3 4 5 6 6 7 7
9 8 6 6 5 5 4 4 4 2 2 1 1 0 -1 -2 -3 -3 -4 -4 -5 -5 -6 -6 -6 -7 -7 -7 -6 -6 -6 -6 -6 -5 -5 -4 -4 -3 -2 -1 0 2 2 3 4 4 5 6 6
9 7 6 5 4 3 2 2 3 2 2 1 0 -1 -2 -3 -4 -4 -5 -6 -6 -7 -7 -7 -8 -8 -8 -8 -7 -7 -7 -6 -6 -5 -5 -4 -4 -3 -2 -1 0 1 1 2 3 3 4 4 5
Wind_Speed
11 9 3 4 6 5 5 6 4 1 3 4 3 9 8 6 4 3 4 4 8 9 13 15 17 16 15 13 11 11 10 9 8 7 7 6 6 5 5 7 8 9 8 8 7 5 5 5 5
6 4 5 5 5 5 4 6 5 5 2 4 7 8 7 4 1 5 3 8 10 10 14 15 17 16 15 13 12 11 11 10 9 8 7 6 5 4 3 4 7 9 9 9 7 5 5 5 5
5 4 5 5 4 2 2 3 4 5 5 6 6 7 6 3 1 2 4 9 9 9 15 16 18 16 14 13 12 12 11 10 9 8 7 7 6 4 3 3 4 6 7 8 7 6 5 6 6
5 5 5 6 4 5 2 2 5 7 10 9 5 6 4 3 3 2 1 7 9 8 11 13 15 13 12 11 11 11 11 11 10 8 8 9 8 6 5 4 4 4 4 6 6 6 6 6 6
4 5 7 5 6 7 5 4 10 10 8 9 6 5 3 6 6 6 6 4 7 5 5 8 10 9 9 9 10 10 10 11 10 9 8 8 8 8 7 7 6 4 3 4 4 5 6 6 7
5 5 5 4 7 7 6 7 7 8 7 8 6 4 4 7 7 7 8 6 7 7 6 6 7 8 8 8 8 9 10 10 9 9 8 8 9 9 8 8 6 5 5 5 4 5 6 7 8
4 5 2 4 4 7 10 7 8 6 8 9 5 5 5 7 5 3 6 8 7 6 5 3 3 6 7 7 7 8 8 8 8 9 9 8 8 10 10 9 8 8 8 7 5 4 5 6 7
5 5 4 4 4 4 9 7 5 6 7 9 8 8 7 9 10 5 5 8 9 8 7 4 2 2 4 7 9 9 8 9 9 10 10 9 8 9 9 8 9 9 8 9 8 6 5 6 7
5 5 4 5 4 2 5 8 10 5 9 12 12 11 10 15 16 15 11 9 9 10 8 6 5 4 4 8 10 11 11 11 11 10 9 9 9 9 9 10 12 11 11 11 10 10 10 9 9
5 3 1 2 2 2 3 6 8 9 13 10 10 15 17 23 24 23 19 15 12 10 9 8 6 6 8 5 4 6 8 10 11 10 10 10 10 11 11 12 16 16 16 15 14 14 13 12 10
4 5 4 3 2 3 4 8 9 8 12 9 9 12 20 26 25 23 21 16 14 11 13 11 9 9 9 6 5 5 7 8 9 10 11 10 10 10 10 9 11 13 14 12 11 11 11 10 9
4 4 2 2 3 3 5 7 11 15 9 8 12 16 22 25 22 20 19 18 18 17 19 17 13 12 11 9 5 5 5 4 4 7 8 7 4 4 4 4 6 7 7 6 6 6 8 9 11
2 2 3 3 4 7 11 11 13 11 9 11 19 25 24 22 17 15 16 18 19 20 20 18 18 18 14 11 8 7 5 5 5 6 7 5 3 4 4 3 4 5 5 4 3 4 6 7 7
2 4 5 3 5 6 12 9 9 8 8 17 22 21 19 19 17 18 20 21 19 17 17 17 18 17 16 14 13 9 11 11 8 7 8 7 4 3 4 4 4 3 5 5 5 6 6 6 6
3 5 7 5 7 6 11 11 8 6 12 19 16 15 17 15 16 15 13 14 14 14 16 18 16 16 16 15 13 13 14 16 11 9 9 7 5 4 3 4 4 5 6 6 5 5 4 5 5
5 6 6 6 4 5 10 8 7 4 17 17 12 11 12 12 12 11 10 10 11 12 15 16 17 17 16 12 12 13 15 15 14 16 15 12 8 6 3 4 5 5 6 4 6 6 5 5 5
9 5 5 7 7 5 8 8 6 5 17 14 10 10 11 12 13 11 11 10 10 10 11 13 13 14 13 10 11 12 14 13 15 17 17 17 14 8 4 4 5 6 5 6 7 7 6 5 5
4 3 4 5 6 7 9 10 9 8 14 11 10 10 12 14 14 12 11 10 10 9 9 10 11 12 12 10 9 9 11 12 14 14 18 23 18 13 5 5 6 6 5 5 5 7 6 5 4
2 2 3 3 4 5 12 13 8 6 10 11 11 12 13 13 13 13 13 12 12 12 12 12 11 11 10 8 8 9 10 11 11 10 18 21 22 19 10 6 6 5 5 6 6 5 6 5 3
4 2 4 6 7 6 13 11 7 7 10 10 11 12 11 13 15 16 16 15 15 15 14 13 13 13 11 7 5 4 4 5 6 6 12 18 20 19 14 12 8 6 5 6 5 5 4 4 4
5 1 3 6 7 4 11 6 6 7 11 13 11 10 12 14 14 15 14 14 15 16 17 17 16 17 15 11 6 5 4 5 6 10 13 14 20 20 16 15 10 7 6 6 6 6 6 5 3
5 6 7 7 4 4 4 5 4 6 11 13 12 12 13 13 13 13 14 15 16 15 14 15 16 16 16 12 8 8 8 6 6 8 11 16 18 19 19 16 13 8 6 6 6 5 5 5 4
7 10 7 4 5 2 3 6 1 4 9 10 10 11 13 13 13 13 14 14 14 13 13 14 15 15 14 13 11 10 8 8 9 10 12 13 15 16 19 17 14 10 7 7 7 5 5 4 5
7 7 5 5 5 2 3 6 3 5 5 6 9 11 12 14 13 12 13 15 14 13 13 15 16 14 14 14 14 12 12 14 16 15 14 14 13 14 17 18 17 13 9 7 7 7 7 5 5
10 8 7 9 6 4 4 8 5 4 4 6 7 9 11 12 10 12 16 18 17 15 16 16 17 16 16 16 16 14 13 14 15 16 15 16 15 15 16 17 17 14 11 8 6 6 6 6 5
6 6 5 2 5 6 5 5 6 4 3 5 5 7 11 12 11 13 16 18 17 17 17 18 18 17 18 18 17 15 14 13 13 15 16 16 15 16 19 19 18 16 12 8 6 5 6 6 5
5 4 1 3 4 5 2 5 6 3 5 7 9 11 12 12 11 12 14 16 17 16 15 17 18 19 20 19 19 16 16 16 17 19 18 16 17 18 20 20 19 15 9 7 7 5 7 8 7
3 4 6 3 4 6 5 1 3 8 9 9 10 11 11 11 11 13 15 18 18 17 18 18 20 20 20 20 18 17 17 18 18 18 19 20 20 20 21 19 17 14 8 5 5 5 6 7 6
6 5 5 2 1 3 6 3 4 5 6 8 9 10 11 12 13 14 16 17 18 19 19 19 18 19 20 20 19 18 18 18 17 17 19 19 19 20 19 17 15 12 9 5 4 4 6 8 6
4 5 4 1 5 3 3 3 6 2 4 6 8 8 8 9 9 10 13 14 17 19 19 19 19 18 19 19 18 18 18 18 17 18 20 20 20 19 17 13 10 6 2 2 4 4 5 7 7
Wind_Direction
339 353 56 55 51 45 348 302 265 39 47 356 56 85 103 96 120 163 233 177 152 151 170 176 176 177 178 180 181 179 178 175 173 176 176 178 188 191 209 211 212 210 208 207 208 202 194 195 181
345 3 49 58 74 52 353 303 0 32 40 34 54 87 85 64 104 142 170 161 157 158 172 178 180 181 181 181 185 187 186 188 189 187 184 184 187 190 217 229 220 214 213 216 217 211 203 206 197
349 45 71 62 68 139 152 290 7 356 16 51 44 64 78 61 86 188 219 159 157 163 176 181 181 182 183 184 190 195 195 200 201 197 197 200 203 209 222 233 210 204 206 207 208 207 206 207 209
46 35 52 58 359 299 259 11 46 25 9 21 52 50 54 347 283 239 233 148 160 174 179 181 181 181 184 191 198 203 204 210 208 207 213 209 205 212 220 194 161 158 173 183 187 195 204 210 216
60 66 47 24 344 332 324 357 63 51 20 357 36 68 49 347 10 37 48 113 142 126 148 170 179 181 186 198 207 212 215 222 216 217 219 215 205 208 211 190 166 170 188 190 190 200 212 220 224
50 62 62 5 343 336 356 5 49 52 17 8 35 77 37 6 10 22 45 66 113 114 124 156 178 183 191 205 217 222 226 232 232 236 224 227 224 213 216 204 187 200 217 220 219 223 227 232 234
81 73 50 336 351 26 352 357 44 39 20 346 352 66 22 354 340 32 82 93 107 105 101 117 177 187 197 212 227 235 236 236 239 251 235 224 235 226 221 216 209 216 225 227 230 242 249 246 245
104 86 31 11 62 20 325 355 12 25 13 3 31 48 10 336 331 354 53 65 64 60 60 44 349 263 237 231 231 232 235 235 237 254 242 228 240 244 230 222 207 212 219 219 217 223 245 256 257
78 67 36 16 44 352 335 13 352 23 53 48 40 36 10 9 21 22 16 23 45 45 40 40 36 7 295 257 244 235 235 235 234 235 234 232 234 239 238 233 220 218 214 211 215 220 228 235 242
82 100 263 322 168 160 20 24 355 38 40 35 32 25 29 39 40 38 30 26 27 23 19 18 14 18 19 356 276 254 257 253 243 232 230 231 230 234 238 242 236 233 218 213 220 227 230 232 236
139 176 233 294 206 135 57 31 19 80 48 36 54 36 39 43 40 37 32 25 17 9 10 4 8 14 18 8 7 338 314 285 259 249 246 243 242 244 242 241 235 229 222 223 234 239 234 229 232
195 240 243 305 6 57 77 81 56 64 91 81 70 59 52 47 40 35 31 27 23 21 15 9 10 9 6 4 356 339 323 318 299 285 279 256 253 256 246 226 224 223 226 228 235 238 237 233 235
173 286 314 292 50 79 77 88 90 75 89 77 65 58 53 50 43 38 36 32 26 22 15 12 17 14 7 2 355 347 337 332 322 313 308 280 260 264 260 243 232 227 229 230 232 232 240 240 240
322 288 305 317 76 80 84 82 88 74 78 68 62 59 55 49 40 37 33 29 24 19 14 9 17 13 13 12 4 355 348 336 331 329 323 315 297 280 276 268 258 246 240 236 232 236 236 238 238
329 357 12 38 115 135 96 54 67 101 82 68 59 57 56 48 40 36 30 28 22 16 13 12 14 12 12 11 6 3 358 351 339 330 324 316 306 296 279 269 264 257 254 251 247 248 243 250 254
36 37 26 354 50 104 97 93 69 69 80 70 56 49 49 43 37 30 25 22 18 16 13 9 11 10 10 8 4 2 360 359 353 340 326 308 290 273 251 252 257 258 258 249 248 246 246 246 252
30 20 356 339 3 48 90 110 78 52 78 69 50 42 41 35 28 20 18 15 9 8 9 7 6 6 3 360 2 2 360 357 353 348 341 324 303 279 240 247 259 264 258 251 249 241 225 235 249
335 337 317 310 356 60 90 99 75 50 74 66 49 39 35 30 15 3 3 3 1 358 1 5 5 2 358 354 355 359 1 357 352 350 347 340 325 302 267 251 267 270 263 262 251 241 225 220 233
245 257 281 267 31 56 105 97 82 67 67 57 44 35 32 22 5 1 358 352 354 355 352 351 352 345 344 346 350 355 356 350 346 344 343 342 338 327 304 266 254 251 248 253 249 238 229 224 202
38 60 352 325 350 55 99 90 84 67 63 55 48 38 26 15 6 0 356 351 348 347 345 343 340 331 327 322 314 318 321 315 318 319 336 339 335 330 323 294 262 240 239 249 243 228 217 209 181
360 149 281 287 326 68 118 100 98 67 64 56 44 36 23 13 1 356 356 354 356 358 356 354 345 341 336 328 317 318 316 315 340 344 341 337 333 326 324 309 278 243 220 224 224 215 195 195 194
312 261 275 278 303 273 174 151 147 88 56 38 26 23 14 1 355 354 360 3 4 0 358 353 347 345 343 341 336 339 346 340 333 333 329 328 328 325 323 319 297 261 223 214 218 205 190 172 178
280 288 288 258 196 291 11 103 108 49 42 19 12 15 8 356 353 357 4 360 354 348 350 348 342 340 339 341 340 341 343 335 330 330 325 324 322 320 319 317 310 285 249 216 206 190 176 171 170
312 341 24 65 85 52 33 117 52 29 35 10 12 10 358 348 349 360 2 355 349 347 348 345 343 341 344 350 355 352 345 338 334 332 325 323 318 314 311 314 312 299 275 233 202 188 173 169 166
16 30 19 8 6 276 57 94 115 100 72 40 24 3 347 341 351 3 360 354 348 348 348 347 348 350 357 0 356 345 340 337 332 330 326 322 317 312 309 310 306 295 276 254 207 174 158 155 161
360 63 86 309 279 297 23 119 154 152 84 43 25 355 351 353 2 2 357 352 344 344 348 349 349 352 354 351 347 342 344 339 333 330 325 319 313 308 306 305 300 289 265 240 211 161 142 129 124
14 56 164 182 288 281 269 131 182 74 30 18 5 356 355 351 355 353 352 350 343 340 346 350 351 353 351 349 345 341 341 337 334 331 325 320 314 308 302 300 297 288 262 213 187 153 140 124 110
75 112 57 42 313 298 301 112 331 352 354 352 347 343 342 345 347 351 355 351 346 347 353 354 358 355 349 344 342 340 338 337 333 328 323 318 313 308 302 295 291 280 257 196 154 135 121 108 110
8 44 49 31 218 257 293 314 54 32 356 334 330 339 343 346 348 352 352 350 351 355 354 353 355 353 347 343 341 340 339 335 330 328 326 322 316 311 305 298 292 273 250 214 159 144 129 115 106
67 77 83 18 299 257 253 252 82 59 304 312 330 340 337 339 338 343 349 351 353 352 350 350 351 350 344 341 341 342 340 335 333 337 338 335 329 322 315 313 318 304 258 154 131 133 114 108 101
Height
1524 1522 1521 1521 1524 1534 1533 1525 1516 1509 1506 1506 1506 1506 1511 1514 1518 1525 1520 1518 1519 1520 1519 1519 1519 1519 1519 1519 1519 1519 1519 1520 1520 1520 1521 1521 1522 1522 1523 1524 1524 1524 1525 1525 1526 1526 1527 1528 1529
1524 1523 1523 1522 1531 1542 1533 1522 1515 1509 1507 1506 1507 1510 1512 1515 1516 1518 1518 1518 1519 1520 1520 1520 1520 1520 1520 1520 1520 1519 1519 1519 1519 1520 1520 1520 1520 1521 1522 1522 1523 1523 1523 1524 1524 1525 1526 1527 1527
1524 1523 1523 1525 1531 1537 1528 1518 1514 1510 1509 1508 1510 1513 1516 1519 1519 1519 1520 1519 1519 1520 1520 1521 1521 1521 1521 1521 1520 1519 1518 1518 1519 1519 1519 1519 1520 1520 1520 1521 1522 1522 1522 1522 1523 1524 1524 1525 1526
1524 1524 1525 1531 1531 1527 1521 1516 1513 1512 1511 1512 1513 1516 1519 1521 1521 1521 1521 1521 1520 1521 1521 1521 1521 1521 1521 1520 1520 1519 1519 1518 1518 1518 1518 1518 1518 1519 1519 1520 1520 1520 1520 1521 1521 1522 1523 1523 1524
1524 1525 1531 1538 1534 1527 1522 1519 1515 1516 1516 1516 1516 1519 1522 1523 1523 1523 1522 1522 1522 1521 1521 1521 1521 1521 1520 1520 1519 1519 1518 1518 1517 1517 1517 1517 1517 1517 1517 1518 1519 1519 1519 1519 1519 1520 1521 1521 1522
1525 1526 1541 1543 1535 1527 1523 1521 1518 1520 1520 1519 1519 1521 1524 1526 1526 1525 1524 1524 1523 1523 1522 1522 1521 1520 1520 1520 1519 1518 1517 1517 1516 1516 1515 1515 1516 1516 1516 1516 1516 1517 1517 1517 1517 1518 1518 1519 1520
1528 1533 1540 1539 1536 1531 1527 1524 1524 1523 1522 1523 1522 1524 1527 1528 1528 1527 1526 1525 1524 1523 1523 1522 1521 1520 1519 1519 1518 1517 1516 1515 1515 1514 1514 1514 1514 1514 1514 1514 1514 1515 1515 1515 1515 1516 1516 1516 1517
1529 1534 1538 1540 1537 1535 1530 1527 1527 1526 1527 1526 1526 1529 1532 1532 1529 1528 1528 1527 1525 1524 1523 1522 1521 1520 1519 1518 1517 1516 1515 1514 1514 1513 1513 1513 1512 1512 1512 1512 1512 1512 1513 1513 1513 1513 1514 1514 1515
1531 1540 1544 1538 1536 1535 1530 1528 1528 1529 1530 1532 1534 1536 1536 1532 1528 1528 1528 1527 1526 1525 1525 1524 1521 1519 1518 1516 1516 1515 1514 1513 1512 1512 1512 1511 1511 1511 1510 1510 1510 1510 1510 1510 1510 1510 1511 1511 1512
1532 1543 1538 1534 1532 1532 1530 1530 1530 1531 1534 1537 1537 1537 1535 1530 1528 1527 1527 1528 1528 1527 1526 1525 1522 1519 1517 1515 1515 1514 1513 1512 1511 1510 1510 1510 1509 1509 1508 1508 1508 1508 1508 1507 1507 1507 1507 1507 1507
1532 1536 1533 1532 1531 1530 1530 1532 1532 1532 1544 1546 1543 1540 1534 1531 1530 1529 1529 1529 1528 1528 1526 1525 1522 1519 1516 1515 1514 1513 1512 1510 1509 1509 1508 1507 1507 1506 1506 1505 1505 1505 1505 1504 1504 1504 1503 1503 1502
1532 1531 1531 1531 1531 1530 1531 1535 1539 1540 1551 1550 1544 1539 1535 1534 1534 1533 1532 1531 1529 1527 1525 1523 1520 1518 1516 1515 1514 1512 1511 1509 1508 1506 1505 1504 1504 1503 1503 1502 1502 1502 1501 1501 1500 1500 1499 1499 1498
1531 1531 1530 1530 1531 1531 1533 1537 1542 1551 1552 1549 1543 1538 1537 1538 1539 1538 1536 1533 1530 1527 1525 1523 1520 1518 1515 1514 1513 1512 1510 1509 1507 1505 1504 1502 1501 1500 1499 1498 1498 1498 1497 1497 1496 1495 1495 1495 1494
1530 1529 1528 1528 1530 1532 1535 1541 1545 1556 1553 1546 1542 1542 1542 1541 1541 1538 1535 1534 1532 1529 1527 1524 1521 1518 1516 1514 1511 1509 1508 1507 1506 1505 1503 1501 1499 1498 1496 1495 1494 1494 1493 1492 1492 1491 1490 1490 1490
1530 1529 1529 1528 1529 1533 1534 1548 1554 1557 1550 1546 1546 1546 1546 1545 1543 1541 1540 1538 1535 1531 1528 1524 1521 1519 1516 1513 1511 1509 1506 1504 1502 1502 1501 1499 1497 1496 1494 1492 1491 1489 1488 1487 1487 1486 1485 1485 1485
1531 1536 1540 1533 1531 1533 1539 1558 1560 1558 1549 1550 1551 1551 1549 1548 1546 1545 1543 1539 1536 1532 1528 1525 1522 1518 1515 1512 1509 1506 1504 1502 1499 1497 1496 1495 1494 1492 1490 1488 1486 1485 1484 1482 1481 1480 1480 1480 1480
1546 1549 1545 1539 1534 1534 1542 1558 1562 1561 1554 1556 1556 1556 1554 1551 1549 1547 1544 1541 1537 1533 1529 1525 1521 1517 1513 1510 1506 1503 1500 1498 1496 1494 1492 1489 1488 1487 1485 1483 1482 1480 1478 1477 1476 1475 1475 1474 1474
1553 1551 1548 1544 1538 1539 1549 1561 1566 1565 1560 1560 1560 1558 1557 1554 1553 1550 1546 1542 1538 1533 1529 1524 1520 1515 1511 1508 1503 1499 1496 1493 1491 1489 1487 1484 1482 1481 1480 1478 1476 1475 1472 1471 1471 1470 1470 1469 1469
1546 1547 1548 1543 1540 1543 1554 1564 1567 1566 1563 1563 1563 1562 1560 1558 1556 1551 1547 1542 1538 1533 1529 1524 1519 1515 1510 1505 1501 1495 1491 1489 1486 1483 1481 1478 1475 1472 1471 1471 1470 1469 1467 1466 1465 1464 1464 1464 1464
1547 1549 1551 1548 1544 1548 1562 1567 1568 1567 1567 1567 1567 1565 1563 1560 1556 1551 1547 1543 1539 1534 1530 1525 1521 1515 1510 1505 1500 1495 1490 1487 1484 1480 1475 1472 1469 1466 1462 1461 1462 1461 1460 1459 1459 1458 1458 1459 1459
1551 1551 1552 1553 1549 1548 1561 1568 1570 1571 1570 1570 1569 1568 1566 1562 1557 1553 1548 1544 1539 1534 1529 1524 1518 1513 1507 1502 1496 1491 1485 1481 1477 1472 1468 1464 1461 1459 1456 1453 1453 1453 1452 1452 1452 1452 1453 1453 1454
1558 1548 1549 1550 1555 1557 1554 1574 1576 1577 1578 1576 1574 1571 1568 1564 1559 1554 1549 1544 1539 1534 1528 1522 1515 1509 1504 1498 1493 1487 1481 1477 1472 1468 1464 1460 1456 1452 1450 1447 1445 1446 1446 1445 1446 1446 1446 1447 1448
1554 1547 1548 1548 1554 1558 1557 1572 1584 1580 1583 1584 1580 1576 1571 1566 1560 1555 1549 1544 1539 1532 1525 1517 1511 1505 1499 1494 1489 1484 1480 1475 1469 1465 1459 1455 1451 1447 1444 1442 1439 1439 1440 1440 1439 1439 1440 1441 1443
1552 1549 1547 1551 1556 1559 1555 1570 1588 1585 1586 1584 1581 1577 1572 1566 1560 1555 1549 1543 1537 1530 1523 1515 1508 1502 1496 1490 1485 1481 1476 1471 1465 1459 1453 1448 1444 1440 1437 1435 1433 1432 1432 1433 1433 1433 1434 1435 1437
1559 1563 1566 1565 1569 1563 1563 1575 1588 1585 1583 1582 1580 1576 1571 1565 1559 1552 1546 1540 1534 1527 1520 1512 1505 1498 1492 1487 1482 1478 1473 1467 1461 1454 1448 1441 1436 1433 1430 1428 1426 1425 1425 1426 1426 1426 1427 1429 1431
1568 1570 1581 1583 1581 1574 1567 1583 1588 1584 1583 1581 1579 1576 1570 1564 1558 1551 1545 1539 1532 1525 1517 1509 1502 1495 1489 1484 1479 1474 1469 1463 1456 1450 1444 1437 1431 1426 1423 1420 1418 1418 1418 1418 1420 1420 1421 1423 1425
1570 1574 1575 1581 1580 1581 1573 1581 1589 1584 1583 1580 1577 1572 1567 1562 1556 1550 1543 1536 1530 1523 1516 1509 1501 1494 1488 1482 1476 1471 1465 1459 1452 1445 1439 1432 1425 1420 1415 1412 1410 1410 1410 1411 1413 1414 1415 1417 1419
1572 1574 1582 1582 1583 1580 1575 1583 1590 1587 1585 1580 1575 1569 1565 1560 1554 1547 1540 1534 1528 1522 1515 1508 1501 1494 1488 1481 1475 1469 1462 1456 1449 1442 1436 1429 1422 1415 1409 1405 1403 1403 1404 1405 1407 1408 1409 1411 1414
1576 1578 1582 1587 1589 1594 1592 1591 1587 1588 1585 1580 1575 1570 1565 1560 1554 1547 1540 1533 1527 1520 1513 1506 1499 1493 1487 1480 1473 1467 1460 1454 1448 1441 1434 1426 1419 1411 1405 1400 1397 1396 1397 1399 1401 1403 1405 1407 1410
1578 1584 1588 1594 1595 1596 1600 1596 1587 1586 1583 1579 1575 1570 1565 1560 1555 1548 1540 1532 1525 1518 1511 1505 1499 1493 1486 1479 1472 1465 1458 1452 1446 1440 1432 1424 1416 1408 1402 1397 1393 1392 1392 1394 1396 1398 1400 1402 1405